| time (UTC) | temp F | wind direction | speed MPH | gust MPH | rain 1hr in | rain 24hr in | rain mn in | humidity % | barometer mb |
| 20260903112846 | 80 | 176 | 4.0 | 12.0 | 0.00 | 0.00 | 0.00 | 86 | 1010.0 |
| 20260903110720 | 80 | 186 | 4.0 | 15.0 | 0.00 | 0.00 | 0.00 | 86 | 1009.9 |
| 20260903103356 | 79 | 175 | 5.0 | 13.0 | 0.00 | 0.00 | 0.00 | 88 | 1009.7 |
| 20260903102341 | 79 | 165 | 5.0 | 13.0 | 0.00 | 0.00 | 0.00 | 88 | 1009.6 |
| 20260903100206 | 79 | 175 | 4.0 | 9.0 | 0.00 | 0.00 | 0.00 | 88 | 1009.7 |
| 20260903094107 | 79 | 161 | 3.0 | 10.0 | 0.00 | 0.00 | 0.00 | 88 | 1009.8 |
| 20260903091925 | 79 | 188 | 4.0 | 10.0 | 0.00 | 0.00 | 0.00 | 87 | 1009.9 |
| 20260903090852 | 79 | 163 | 4.0 | 13.0 | 0.00 | 0.00 | 0.00 | 87 | 1010.0 |
| 20260903084654 | 79 | 204 | 5.0 | 14.0 | 0.00 | 0.00 | 0.00 | 86 | 1009.9 |
| 20260903083700 | 79 | 198 | 5.0 | 14.0 | 0.00 | 0.00 | 0.00 | 86 | 1009.9 |
| 20260903082641 | 79 | 165 | 5.0 | 14.0 | 0.00 | 0.00 | 0.00 | 85 | 1010.0 |
| 20260903080547 | 80 | 174 | 4.0 | 11.0 | 0.00 | 0.00 | 0.00 | 84 | 1010.0 |
| 20260903075601 | 80 | 191 | 4.0 | 11.0 | 0.00 | 0.00 | 0.00 | 84 | 1010.1 |
| 20260903074608 | 80 | 146 | 5.0 | 12.0 | 0.00 | 0.00 | 0.00 | 84 | 1010.1 |
| 20260903073538 | 80 | 193 | 5.0 | 12.0 | 0.00 | 0.00 | 0.00 | 83 | 1010.2 |
| 20260903072511 | 80 | 159 | 5.0 | 14.0 | 0.00 | 0.00 | 0.00 | 82 | 1010.2 |
| 20260903070418 | 81 | 174 | 5.0 | 13.0 | 0.00 | 0.00 | 0.00 | 81 | 1010.2 |
| 20260903065344 | 81 | 210 | 5.0 | 13.0 | 0.00 | 0.00 | 0.00 | 80 | 1010.3 |
| 20260903063226 | 82 | 155 | 5.0 | 15.0 | 0.00 | 0.00 | 0.00 | 78 | 1010.3 |
| 20260903062237 | 82 | 180 | 6.0 | 15.0 | 0.00 | 0.00 | 0.00 | 77 | 1010.4 |
| 20260903061214 | 82 | 205 | 6.0 | 20.0 | 0.00 | 0.00 | 0.00 | 75 | 1010.5 |
| 20260903060231 | 83 | 202 | 6.0 | 20.0 | 0.00 | 0.00 | 0.00 | 73 | 1010.5 |
| 20260903054050 | 83 | 170 | 6.0 | 15.0 | 0.00 | 0.00 | 0.00 | 70 | 1010.4 |
| 20260903053034 | 84 | 153 | 6.0 | 15.0 | 0.00 | 0.00 | 0.00 | 69 | 1010.5 |
| 20260903052017 | 84 | 133 | 6.0 | 13.0 | 0.00 | 0.00 | 0.00 | 68 | 1010.5 |
| 20260903051009 | 84 | 153 | 5.0 | 13.0 | 0.00 | 0.00 | 0.00 | 67 | 1010.4 |
| 20260903044921 | 85 | 167 | 4.0 | 12.0 | 0.00 | 0.00 | 0.00 | 65 | 1010.2 |
| 20260903043939 | 85 | 173 | 3.0 | 12.0 | 0.00 | 0.00 | 0.00 | 64 | 1010.2 |
| 20260903042953 | 85 | 128 | 3.0 | 8.0 | 0.00 | 0.00 | 0.00 | 64 | 1010.1 |
| 20260903042011 | 85 | 117 | 3.0 | 9.0 | 0.00 | 0.00 | 0.00 | 63 | 1010.1 |
| 20260903040946 | 86 | 128 | 3.0 | 10.0 | 0.00 | 0.00 | 0.00 | 62 | 1010.0 |
| 20260903035959 | 86 | 126 | 3.0 | 10.0 | 0.00 | 0.00 | 0.00 | 62 | 1009.9 |
| 20260903035015 | 86 | 69 | 3.0 | 13.0 | 0.00 | 0.00 | 0.00 | 60 | 1010.0 |
| 20260903034024 | 87 | 181 | 4.0 | 13.0 | 0.00 | 0.00 | 0.00 | 59 | 1010.0 |
| 20260903031826 | 87 | 202 | 2.0 | 7.0 | 0.00 | 0.00 | 0.00 | 58 | 1009.8 |
| 20260903030811 | 88 | 113 | 2.0 | 7.0 | 0.00 | 0.00 | 0.00 | 57 | 1009.5 |
| 20260903023533 | 89 | 119 | 2.0 | 7.0 | 0.00 | 0.00 | 0.00 | 55 | 1009.0 |
| 20260903021424 | 89 | 107 | 1.0 | 6.0 | 0.00 | 0.00 | 0.00 | 53 | 1008.6 |
| 20260903020415 | 90 | 112 | 2.0 | 6.0 | 0.00 | 0.00 | 0.00 | 53 | 1008.4 |
| 20260903015403 | 90 | 117 | 1.0 | 3.0 | 0.00 | 0.00 | 0.00 | 51 | 1008.3 |
| 20260903014334 | 91 | 109 | 1.0 | 3.0 | 0.00 | 0.00 | 0.00 | 50 | 1008.3 |
| 20260903012226 | 93 | 99 | 0.0 | 2.0 | 0.00 | 0.00 | 0.00 | 47 | 1008.1 |
| 20260903011250 | 94 | 90 | 0.0 | 2.0 | 0.00 | 0.00 | 0.00 | 46 | 1008.0 |
| 20260903005150 | 95 | 128 | 0.0 | 1.0 | 0.00 | 0.00 | 0.00 | 43 | 1008.0 |
| 20260903004152 | 96 | 128 | 0.0 | 1.0 | 0.00 | 0.00 | 0.00 | 42 | 1008.1 |
| 20260903003156 | 96 | 128 | 1.0 | 3.0 | 0.00 | 0.00 | 0.00 | 41 | 1008.0 |
| 20260903001035 | 97 | 168 | 1.0 | 4.0 | 0.00 | 0.00 | 0.00 | 40 | 1008.1 |
| 20260903000044 | 98 | 161 | 0.0 | 3.0 | 0.00 | 0.00 | 0.00 | 40 | 1008.1 |
| 20260902233928 | 100 | 174 | 1.0 | 5.0 | 0.00 | 0.00 | 0.00 | 38 | 1008.0 |
| 20260902232859 | 101 | 174 | 1.0 | 4.0 | 0.00 | 0.00 | 0.00 | 37 | 1008.1 |
| 20260902231827 | 101 | 178 | 0.0 | 8.0 | 0.00 | 0.00 | 0.00 | 37 | 1008.2 |
| 20260902230825 | 101 | 211 | 1.0 | 8.0 | 0.00 | 0.00 | 0.00 | 38 | 1008.2 |
| 20260902225757 | 101 | 216 | 1.0 | 8.0 | 0.00 | 0.00 | 0.00 | 38 | 1008.2 |
| 20260902224739 | 100 | 236 | 2.0 | 8.0 | 0.00 | 0.00 | 0.00 | 39 | 1008.2 |
| 20260902223718 | 99 | 148 | 3.0 | 7.0 | 0.00 | 0.00 | 0.00 | 40 | 1008.2 |
| 20260902220408 | 97 | 161 | 2.0 | 6.0 | 0.00 | 0.00 | 0.00 | 43 | 1008.5 |
| 20260902215425 | 97 | 197 | 2.0 | 6.0 | 0.00 | 0.00 | 0.00 | 44 | 1008.5 |
| 20260902214407 | 97 | 209 | 4.0 | 9.0 | 0.00 | 0.00 | 0.00 | 44 | 1008.6 |
| 20260902212305 | 97 | 199 | 4.0 | 10.0 | 0.00 | 0.00 | 0.00 | 46 | 1008.9 |
| 20260902211258 | 98 | 182 | 3.0 | 10.0 | 0.00 | 0.00 | 0.00 | 44 | 1009.0 |
| 20260902210253 | 97 | 193 | 2.0 | 12.0 | 0.00 | 0.00 | 0.00 | 45 | 1009.0 |
| 20260902205236 | 98 | 176 | 3.0 | 12.0 | 0.00 | 0.00 | 0.00 | 44 | 1009.1 |
| 20260902203031 | 101 | 222 | 2.0 | 8.0 | 0.00 | 0.00 | 0.00 | 39 | 1009.3 |
| 20260902200858 | 99 | 261 | 2.0 | 8.0 | 0.00 | 0.00 | 0.00 | 41 | 1009.6 |
| 20260902195914 | 97 | 157 | 2.0 | 6.0 | 0.00 | 0.00 | 0.00 | 42 | 1009.8 |
| 20260902194848 | 97 | 31 | 2.0 | 6.0 | 0.00 | 0.00 | 0.00 | 43 | 1010.0 |
| 20260902193831 | 96 | 56 | 2.0 | 7.0 | 0.00 | 0.00 | 0.00 | 43 | 1010.1 |
| 20260902192834 | 97 | 101 | 2.0 | 7.0 | 0.00 | 0.00 | 0.00 | 43 | 1010.2 |
| 20260902191819 | 97 | 76 | 2.0 | 5.0 | 0.00 | 0.00 | 0.00 | 43 | 1010.4 |
| 20260902190822 | 97 | 47 | 3.0 | 9.0 | 0.00 | 0.00 | 0.00 | 43 | 1010.4 |
| 20260902185844 | 99 | 51 | 1.0 | 9.0 | 0.00 | 0.00 | 0.00 | 41 | 1010.6 |
| 20260902184826 | 100 | 215 | 2.0 | 9.0 | 0.00 | 0.00 | 0.00 | 38 | 1010.7 |
| 20260902183817 | 103 | 201 | 2.0 | 9.0 | 0.00 | 0.00 | 0.00 | 37 | 1010.8 |
| 20260902182755 | 101 | 182 | 3.0 | 8.0 | 0.00 | 0.00 | 0.00 | 38 | 1010.9 |
| 20260902181816 | 101 | 155 | 2.0 | 8.0 | 0.00 | 0.00 | 0.00 | 38 | 1011.1 |
| 20260902180746 | 101 | 196 | 2.0 | 9.0 | 0.00 | 0.00 | 0.00 | 38 | 1011.4 |
| 20260902175748 | 101 | 199 | 2.0 | 8.0 | 0.00 | 0.00 | 0.00 | 39 | 1011.6 |
| 20260902174730 | 100 | 135 | 2.0 | 6.0 | 0.00 | 0.00 | 0.00 | 40 | 1011.8 |
| 20260902172620 | 97 | 302 | 3.0 | 8.0 | 0.00 | 0.00 | 0.00 | 43 | 1012.1 |
| 20260902171635 | 97 | 252 | 2.0 | 7.0 | 0.00 | 0.00 | 0.00 | 43 | 1012.2 |
| 20260902170610 | 98 | 269 | 2.0 | 7.0 | 0.00 | 0.00 | 0.00 | 43 | 1012.4 |
| 20260902165545 | 97 | 238 | 1.0 | 6.0 | 0.00 | 0.00 | 0.00 | 44 | 1012.5 |
| 20260902164554 | 96 | 266 | 2.0 | 10.0 | 0.00 | 0.00 | 0.00 | 45 | 1012.6 |
| 20260902161351 | 94 | 196 | 2.0 | 7.0 | 0.00 | 0.00 | 0.00 | 48 | 1012.8 |
| 20260902160356 | 93 | 272 | 3.0 | 10.0 | 0.00 | 0.00 | 0.00 | 49 | 1012.8 |
| 20260902155332 | 92 | 273 | 2.0 | 10.0 | 0.00 | 0.00 | 0.00 | 51 | 1012.7 |
| 20260902153242 | 90 | 247 | 3.0 | 10.0 | 0.00 | 0.00 | 0.00 | 54 | 1012.6 |
| 20260902152217 | 89 | 275 | 3.0 | 12.0 | 0.00 | 0.00 | 0.00 | 57 | 1012.7 |
| 20260902151212 | 88 | 254 | 3.0 | 12.0 | 0.00 | 0.00 | 0.00 | 60 | 1012.7 |
| 20260902143820 | 86 | 225 | 2.0 | 8.0 | 0.00 | 0.00 | 0.00 | 67 | 1012.9 |
| 20260902142810 | 85 | 257 | 1.0 | 6.0 | 0.00 | 0.00 | 0.00 | 71 | 1012.9 |
| 20260902134357 | 81 | 257 | 1.0 | 7.0 | 0.00 | 0.00 | 0.00 | 78 | 1012.7 |
| 20260902133407 | 80 | 262 | 1.0 | 6.0 | 0.00 | 0.00 | 0.00 | 79 | 1012.7 |
| 20260902132414 | 79 | 214 | 1.0 | 6.0 | 0.00 | 0.00 | 0.00 | 80 | 1012.6 |
| 20260902131340 | 78 | 230 | 1.0 | 3.0 | 0.00 | 0.00 | 0.00 | 81 | 1012.5 |
| 20260902130309 | 77 | 240 | 0.0 | 3.0 | 0.00 | 0.00 | 0.00 | 82 | 1012.4 |
| 20260902125257 | 77 | 254 | 0.0 | 1.0 | 0.00 | 0.00 | 0.00 | 81 | 1012.4 |
| 20260902124222 | 77 | 237 | 0.0 | 0.0 | 0.00 | 0.00 | 0.00 | 81 | 1012.3 |
| 20260902123210 | 77 | 207 | 0.0 | 0.0 | 0.00 | 0.00 | 0.00 | 81 | 1012.1 |
| 20260902122227 | 77 | 236 | 0.0 | 1.0 | 0.00 | 0.00 | 0.00 | 81 | 1012.0 |
| 20260902121239 | 77 | 187 | 0.0 | 0.0 | 0.00 | 0.00 | 0.00 | 80 | 1012.0 |
| 20260902120214 | 77 | 187 | 0.0 | 1.0 | 0.00 | 0.00 | 0.00 | 80 | 1012.0 |
| 20260902115150 | 77 | 187 | 0.0 | 0.0 | 0.00 | 0.00 | 0.00 | 80 | 1012.0 |
| 20260902114120 | 77 | 211 | 0.0 | 0.0 | 0.00 | 0.00 | 0.00 | 79 | 1012.0 |